Terminal Aerodrome Forecast
Issued by NWS Amarillo, TX

Home | Current Version | Previous Version | Text Only | Print | Product List | Glossary On
Versions: 1 2 3 4 5 6 7 8 9 10 11 12 13 14 15
271
FTUS44 KAMA 031309 AAA
TAFGUY
TAF AMD
KGUY 031309Z 0313/0412 02008KT 5SM BR OVC003
     FM031600 02005KT 3SM BR OVC007
     FM040000 20005KT 4SM -RA BR OVC005
     FM040600 32005KT 2SM BR VCSH OVC004=

USA.gov is the U.S. government's official web portal to all federal, state and local government web resources and services.